Location: North Mitre
(40.7833°S, 175.4667°E)
Time: 18:37:11
(UTC+00:00)

DELTA 2 R/B (1) - Pass Details

Date: 04 August 2024
Orbit: 788 x 801 km, 39.6° (Epoch: 18 September)

Event Time Altitude Azimuth Distance (km) Brightness Sun altitude
Exits shadow 18:42:35 - 288° (WNW) 2,961 6.0 -7.6°
Reaches altitude 10° 18:44:12 10° 290° (WNW) 2,363 5.6 -7.3°
Maximum altitude 18:49:45 69° 12° (NNE) 850 3.9 -6.3°
Drops below altitude 10° 18:55:18 10° 94° (E) 2,364 7.4 -5.3°
Sets 18:57:47 0° 96° (E) 3,294 8.2 -4.9°
